Location: Praha
(50.0830°N, 14.4670°E)
Time: 17:05:39
(UTC+02:00)

ISS - Pass Details

Date: 21 September 2020
Orbit: 419 x 420 km, 51.6° (Epoch: 24 September)

Event Time Altitude Azimuth Distance (km) Brightness Sun altitude
Rises 20:52:34 0° 252° (WSW) 2,362 0.8 -18.1°
Maximum altitude 20:58:02 89° 169° (S) 425 -3.9 -18.9°
Enters shadow 20:58:23 70° 78° (ENE) 450 -3.9 -19.0°
